Weather History for PAAK - September, 2013

Change the Weather History Date:

Friday, September 20, 2013

  Actual Average (PADK) Record (PADK)
Temperature  
Mean Temperature 54 °F -  
Max Temperature 60 °F 50 °F 57 °F (1979)
Min Temperature 48 °F 41 °F 34 °F (1990)
Degree Days  
Heating Degree Days 11    
Growing Degree Days 4 (Base 50)    
Moisture  
Dew Point 46 °F    
Average Humidity 81    
Maximum Humidity 94    
Minimum Humidity 63    
Precipitation  
Precipitation 0.00 in - - ()
Sea Level Pressure  
Sea Level Pressure 29.40 in    
Wind  
Wind Speed 21 mph (West)    
Max Wind Speed 46 mph    
Max Gust Speed 61 mph    
Visibility 8 miles    
Events      
Averages and records for this station are not official NWS values.
T = Trace of Precipitation, MM = Missing Value Source: NWS Daily Summary

Daily Weather History Graph

Daily Weather History Graph

Search for Another Location

Airport or City:

Trip Planner

Search our weather history database for the weather conditions in past years. The results will help you decide how hot, cold, wet, or windy it might be!

Date:

Astronomy

Sep. 20, 2013 Rise Set
Actual Time 8:20 AM HDT 8:38 PM HDT
Civil Twilight 7:46 AM HDT 9:12 PM HDT
Nautical Twilight 7:06 AM HDT 9:52 PM HDT
Astronomical Twilight 6:23 AM HDT 10:34 PM HDT
Moon 9:01 PM HDT (9/20) 10:07 AM HDT (9/20)
Length of Visible Light 13h 26m
Length of Day
12h 18m
Full, 98% of the Moon is Illuminated
Sep 20
Full
Sep 26
Last Quarter
Oct 4
New
Oct 11
First Quarter
Oct 18
Full

Hourly Weather History & Observations

Time (HDT) Temp. Dew Point Humidity Pressure Visibility Wind Dir Wind Speed Gust Speed Precip Events Conditions
12:16 AM 51.8 °F 48.2 °F 88% 29.59 in 4.0 mi SSE 3.5 mph - N/A   Overcast
12:36 AM 51.8 °F 48.2 °F 88% 29.55 in 4.0 mi East 11.5 mph - N/A   Overcast
12:56 AM 51.8 °F 48.2 °F 88% 29.51 in 7.0 mi East 15.0 mph - N/A   Overcast
1:16 AM 51.8 °F 48.2 °F 88% 29.46 in 7.0 mi ENE 16.1 mph - N/A   Overcast
1:36 AM 51.8 °F 48.2 °F 88% 29.42 in 5.0 mi ESE 12.7 mph - N/A   Overcast
1:56 AM 53.6 °F 50.0 °F 88% 29.37 in 4.0 mi SE 17.3 mph 21.9 mph N/A   Mostly Cloudy
2:16 AM 51.8 °F 48.2 °F 88% 29.34 in 3.0 mi ESE 17.3 mph - N/A   Overcast
2:36 AM 53.6 °F 50.0 °F 88% 29.31 in 2.5 mi SE 20.7 mph 26.5 mph N/A   Overcast
2:56 AM 55.4 °F 53.6 °F 94% 29.28 in 2.5 mi SE 16.1 mph 28.8 mph N/A   Overcast
3:16 AM 55.4 °F 51.8 °F 88% 29.25 in 2.0 mi South 18.4 mph 25.3 mph N/A   Overcast
3:36 AM 55.4 °F 51.8 °F 88% 29.20 in 2.5 mi South 21.9 mph 40.3 mph N/A   Overcast
3:56 AM 55.4 °F 51.8 °F 88% 29.18 in 3.0 mi SSW 29.9 mph 38.0 mph N/A   Overcast
4:16 AM 55.4 °F 51.8 °F 88% 29.16 in 4.0 mi SW 10.4 mph 26.5 mph N/A   Overcast
4:36 AM 55.4 °F 51.8 °F 88% 29.15 in 8.0 mi SSW 18.4 mph 32.2 mph N/A   Overcast
4:56 AM 53.6 °F 50.0 °F 88% 29.14 in 10.0 mi SSW 17.3 mph 31.1 mph N/A   Mostly Cloudy
5:16 AM 53.6 °F 48.2 °F 82% 29.15 in 10.0 mi SSW 18.4 mph 29.9 mph N/A   Scattered Clouds
5:36 AM 55.4 °F 48.2 °F 77% 29.13 in 10.0 mi WSW 18.4 mph 27.6 mph N/A   Mostly Cloudy
5:56 AM 60.8 °F 48.2 °F 63% 29.12 in 10.0 mi SW 9.2 mph 21.9 mph N/A   Mostly Cloudy
6:16 AM 59.0 °F 50.0 °F 72% 29.12 in 10.0 mi WSW 9.2 mph 16.1 mph N/A   Mostly Cloudy
6:36 AM 55.4 °F 48.2 °F 77% 29.11 in 10.0 mi SSW 17.3 mph 25.3 mph N/A   Mostly Cloudy
6:56 AM 55.4 °F 48.2 °F 77% 29.11 in 10.0 mi WSW 8.1 mph 26.5 mph N/A   Scattered Clouds
7:16 AM 57.2 °F 46.4 °F 67% 29.11 in 10.0 mi WSW 15.0 mph 24.2 mph N/A   Mostly Cloudy
7:36 AM 57.2 °F 46.4 °F 67% 29.13 in 10.0 mi West 24.2 mph 38.0 mph N/A   Overcast
7:56 AM - - N/A% 29.16 in 10.0 mi West 36.8 mph 52.9 mph N/A   Overcast
8:16 AM - - N/A% 29.18 in 10.0 mi West 38.0 mph 51.8 mph N/A   Overcast
8:36 AM 51.8 °F 42.8 °F 71% 29.20 in 9.0 mi West 39.1 mph 49.5 mph N/A   Overcast
8:56 AM 51.8 °F 42.8 °F 71% 29.21 in 9.0 mi West 34.5 mph 49.5 mph N/A   Overcast
9:16 AM 51.8 °F 42.8 °F 71% 29.22 in 9.0 mi West 46.0 mph 61.0 mph N/A   Overcast
9:36 AM 51.8 °F 41.0 °F 67% 29.24 in 8.0 mi West 34.5 mph 50.6 mph N/A   Overcast
9:56 AM 51.8 °F 42.8 °F 71% 29.25 in 8.0 mi West 42.6 mph 61.0 mph N/A   Overcast
10:16 AM 51.8 °F 42.8 °F 71% 29.25 in 9.0 mi West 35.7 mph 51.8 mph N/A   Overcast
10:36 AM - - N/A% 29.24 in 5.0 mi West 46.0 mph 61.0 mph N/A   Overcast
10:56 AM - - N/A% 29.27 in 4.0 mi West 41.4 mph 57.5 mph N/A   Overcast
11:16 AM 48.2 °F 42.8 °F 82% 29.29 in 2.5 mi West 33.4 mph 57.5 mph N/A   Overcast
11:36 AM - - N/A% 29.31 in 2.0 mi West 41.4 mph 52.9 mph N/A   Overcast
11:56 AM - - N/A% 29.32 in 8.0 mi West 41.4 mph 57.5 mph N/A   Overcast
12:16 PM - - N/A% 29.34 in 10.0 mi West 40.3 mph 57.5 mph N/A   Overcast
12:36 PM 50.0 °F 42.8 °F 76% 29.35 in 9.0 mi West 34.5 mph 54.1 mph N/A   Overcast
12:56 PM 50.0 °F 42.8 °F 76% 29.38 in 8.0 mi West 31.1 mph 50.6 mph N/A   Overcast
1:16 PM 51.8 °F 42.8 °F 71% 29.39 in 9.0 mi West 38.0 mph 46.0 mph N/A   Overcast
1:36 PM - - N/A% 29.40 in 10.0 mi West 40.3 mph 51.8 mph N/A   Overcast
1:56 PM 51.8 °F 42.8 °F 71% 29.43 in 10.0 mi West 34.5 mph 49.5 mph N/A   Overcast
2:16 PM 51.8 °F 42.8 °F 71% 29.44 in 10.0 mi West 32.2 mph 41.4 mph N/A   Overcast
2:36 PM 51.8 °F 44.6 °F 76% 29.45 in 9.0 mi West 27.6 mph 40.3 mph N/A   Overcast
2:56 PM 51.8 °F 42.8 °F 71% 29.46 in 10.0 mi West 28.8 mph 43.7 mph N/A   Overcast
3:16 PM 51.8 °F 42.8 °F 71% 29.48 in 10.0 mi West 28.8 mph 39.1 mph N/A   Overcast
3:36 PM 51.8 °F 42.8 °F 71% 29.49 in 10.0 mi West 28.8 mph 36.8 mph N/A   Overcast
3:56 PM 51.8 °F 44.6 °F 76% 29.50 in 10.0 mi West 21.9 mph 42.6 mph N/A   Overcast
4:16 PM 50.0 °F 44.6 °F 82% 29.51 in 3.0 mi WNW 29.9 mph 40.3 mph N/A   Overcast
4:36 PM 50.0 °F 44.6 °F 82% 29.52 in 7.0 mi West 19.6 mph 39.1 mph N/A   Overcast
4:56 PM 50.0 °F 44.6 °F 82% 29.53 in 7.0 mi West 28.8 mph 39.1 mph N/A   Overcast
5:16 PM 50.0 °F 44.6 °F 82% 29.54 in 7.0 mi West 25.3 mph 33.4 mph N/A   Overcast
5:36 PM 50.0 °F 44.6 °F 82% 29.55 in 6.0 mi West 23.0 mph 33.4 mph N/A   Overcast
5:56 PM 50.0 °F 44.6 °F 82% 29.56 in 6.0 mi West 27.6 mph 35.7 mph N/A   Overcast
6:16 PM 50.0 °F 44.6 °F 82% 29.57 in 6.0 mi West 27.6 mph 36.8 mph N/A   Overcast
6:36 PM 48.2 °F 44.6 °F 87% 29.58 in 7.0 mi West 27.6 mph 35.7 mph N/A   Overcast
6:56 PM 50.0 °F 44.6 °F 82% 29.59 in 7.0 mi West 26.5 mph 38.0 mph N/A   Overcast
7:16 PM 48.2 °F 44.6 °F 87% 29.60 in 7.0 mi West 21.9 mph 35.7 mph N/A   Overcast
7:36 PM 48.2 °F 44.6 °F 87% 29.62 in 7.0 mi West 24.2 mph 35.7 mph N/A   Overcast
7:56 PM 48.2 °F 44.6 °F 87% 29.62 in 8.0 mi West 28.8 mph 35.7 mph N/A   Overcast
8:16 PM 48.2 °F 44.6 °F 87% 29.63 in 8.0 mi West 24.2 mph 36.8 mph N/A   Overcast
8:36 PM 48.2 °F 44.6 °F 87% 29.63 in 8.0 mi West 28.8 mph 34.5 mph N/A   Overcast
8:56 PM 48.2 °F 44.6 °F 87% 29.65 in 9.0 mi West 23.0 mph 33.4 mph N/A   Overcast
9:16 PM 48.2 °F 44.6 °F 87% 29.67 in 10.0 mi West 21.9 mph 33.4 mph N/A   Overcast
9:36 PM 48.2 °F 44.6 °F 87% 29.68 in 10.0 mi West 23.0 mph 29.9 mph N/A   Overcast
9:56 PM 48.2 °F 44.6 °F 87% 29.69 in 10.0 mi West 19.6 mph 31.1 mph N/A   Overcast
10:16 PM 48.2 °F 44.6 °F 87% 29.69 in 10.0 mi West 23.0 mph 31.1 mph N/A   Overcast
10:36 PM 48.2 °F 42.8 °F 82% 29.70 in 10.0 mi West 23.0 mph 33.4 mph N/A   Overcast
10:56 PM 48.2 °F 44.6 °F 87% 29.71 in 10.0 mi West 23.0 mph 32.2 mph N/A   Overcast
11:16 PM 48.2 °F 44.6 °F 87% 29.72 in 10.0 mi West 23.0 mph 28.8 mph N/A   Overcast
11:36 PM 48.2 °F 44.6 °F 87% 29.72 in 10.0 mi West 23.0 mph 31.1 mph N/A   Overcast
11:56 PM 48.2 °F 44.6 °F 87% 29.73 in 10.0 mi West 23.0 mph 31.1 mph N/A   Overcast